Location: Unspecified
(0.0000°N, 0.0000°E)
Time: 12:33:39
(UTC+00:00)

deb r/b Ablestar - Pass Details

Date: 15 April 2026
Orbit: 834 x 1371 km, 65.9° (Epoch: 10 May)

Event Time Altitude Azimuth Distance (km) Brightness Sun altitude
Rises 03:57:54 0° 176° (S) 3,818 ? -30.1°
Reaches altitude 10° 04:00:52 10° 164° (SSE) 2,949 ? -29.3°
Maximum altitude 04:06:40 27° 108° (ESE) 2,101 ? -27.9°
Drops below altitude 10° 04:12:58 10° 54° (NE) 3,255 ? -26.4°
Sets 04:16:24 0° 43° (NE) 4,288 ? -25.5°
